Regional Weather Roundup
Issued by NWS

Home | Current Version | Previous Version | Text Only | Print | Product List | Glossary Off
Versions: 1 2 3 4 5 6 7 8 9 10 11 12 13 14 15 16 17 18 19 20 21 22 23 24 25 26 27 28 29 30 31 32 33 34 35 36 37 38 39 40 41 42 43 44 45 46 47 48 49 50

923
ASUS43 KLMK 240302
RWRKY
KENTUCKY REGIONAL WEATHER ROUNDUP
NATIONAL WEATHER SERVICE LOUISVILLE KY
1100 PM EDT TUE MAY 23 2017

NOTE "FAIR" INDICATES FEW OR NO CLOUDS BELOW 12,000 FEET
WITH NO SIGNIFICANT WEATHER AND/OR OBSTRUCTIONS TO VISIBILITY.

KYZ001>023-026-027-061>063-070>075-240400-
WESTERN AND SOUTH CENTRAL KENTUCKY

CITY           SKY/WX    TMP DP  RH WIND       PRES   REMARKS
PADUCAH        MOCLDY    67  54  63 NW9       29.66R
HENDERSON      CLOUDY    67  55  65 CALM      29.65S
OWENSBORO      CLOUDY    68  55  63 NW5       29.65R
HOPKINSVILLE   CLOUDY    68  52  58 NW6       29.65R
BOWLING GREEN  CLOUDY    68  54  60 W5        29.65S
GLASGOW        NOT AVBL
$$

KYZ024-025-028>034-038-045-046-053-240400-
NORTH CENTRAL KENTUCKY

CITY           SKY/WX    TMP DP  RH WIND       PRES   REMARKS
LOUISVILLE/SDF CLOUDY    70  53  54 NW6       29.63S
LOUISVILLE/LOU CLOUDY    70  56  61 NW3       29.64S
FORT KNOX      CLOUDY    65  54  69 NW5       29.63R
$$

KYZ035>037-039>044-047>052-055>060-089>105-240400-
NORTHEAST KENTUCKY

CITY           SKY/WX    TMP DP  RH WIND       PRES   REMARKS
LEXINGTON      PTCLDY    61  57  87 SE6       29.66S
COVINGTON      CLOUDY    67  57  70 SE13      29.65S
FRANKFORT      PTCLDY    63  57  81 S5        29.64S
$$

KYZ054-064>069-076>088-106>120-240400-
SOUTHEAST KENTUCKY

CITY           SKY/WX    TMP DP  RH WIND       PRES   REMARKS
JACKSON        LGT RAIN  60  59  96 CALM      29.69R
LONDON         CLOUDY    59  57  93 E3        29.67F
SOMERSET       NOT AVBL
MIDDLESBORO    CLOUDY    63  63 100 CALM      29.68F
MONTICELLO     CLOUDY    62  59  90 W9        29.69R
$$





USA.gov is the U.S. government's official web portal to all federal, state and local government web resources and services.